| time (UTC) | temp F | wind direction | speed MPH | gust MPH | rain 1hr in | rain 24hr in | rain mn in | humidity % | barometer mb |
| 20260502130536 | 36 | 22 | 0.0 | 0.0 | 0.00 | 0.27 | 0.09 | 96 | 1014.5 |
| 20260502123546 | 36 | 22 | 0.0 | 0.0 | 0.01 | 0.29 | 0.09 | 97 | 1014.4 |
| 20260502123241 | 36 | 22 | 0.0 | 0.0 | 0.01 | 0.30 | 0.09 | 97 | 1014.3 |
| 20260502122737 | 36 | 22 | 0.0 | 0.0 | 0.01 | 0.30 | 0.09 | 97 | 1014.3 |
| 20260502122208 | 36 | 22 | 0.0 | 0.0 | 0.01 | 0.30 | 0.09 | 97 | 1014.1 |
| 20260502121402 | 36 | 22 | 0.0 | 0.0 | 0.01 | 0.31 | 0.09 | 97 | 1014.1 |
| 20260502120820 | 36 | 22 | 0.0 | 0.0 | 0.01 | 0.31 | 0.09 | 97 | 1014.1 |
| 20260502120304 | 36 | 22 | 0.0 | 0.0 | 0.01 | 0.31 | 0.09 | 97 | 1014.0 |
| 20260502115744 | 36 | 22 | 0.0 | 0.0 | 0.01 | 0.32 | 0.09 | 97 | 1014.0 |
| 20260502115156 | 36 | 22 | 0.0 | 0.0 | 0.01 | 0.32 | 0.09 | 97 | 1014.0 |
| 20260502114646 | 35 | 22 | 0.0 | 0.0 | 0.00 | 0.31 | 0.08 | 97 | 1013.9 |
| 20260502114110 | 35 | 22 | 0.0 | 0.0 | 0.00 | 0.31 | 0.08 | 97 | 1013.9 |
| 20260502113526 | 35 | 22 | 0.0 | 0.0 | 0.00 | 0.32 | 0.08 | 97 | 1013.9 |
| 20260502112954 | 35 | 22 | 0.0 | 0.0 | 0.00 | 0.32 | 0.08 | 97 | 1014.0 |
| 20260502112412 | 35 | 22 | 0.0 | 0.0 | 0.00 | 0.32 | 0.08 | 97 | 1013.9 |
| 20260502112327 | 35 | 22 | 0.0 | 0.0 | 0.00 | 0.32 | 0.08 | 97 | 1013.8 |
| 20260502111251 | 35 | 22 | 0.0 | 0.0 | 0.00 | 0.32 | 0.08 | 97 | 1013.9 |
| 20260502110940 | 35 | 22 | 0.0 | 0.0 | 0.00 | 0.32 | 0.08 | 97 | 1013.7 |
| 20260502110122 | 35 | 22 | 0.0 | 0.0 | 0.00 | 0.32 | 0.08 | 97 | 1013.8 |
| 20260502105542 | 35 | 22 | 0.0 | 0.0 | 0.00 | 0.32 | 0.08 | 97 | 1013.7 |
| 20260502105016 | 35 | 22 | 0.0 | 0.0 | 0.00 | 0.32 | 0.08 | 96 | 1013.7 |
| 20260502104452 | 35 | 22 | 0.0 | 0.0 | 0.00 | 0.32 | 0.08 | 96 | 1013.6 |
| 20260502103952 | 35 | 22 | 0.0 | 0.0 | 0.00 | 0.32 | 0.08 | 97 | 1013.4 |
| 20260502103416 | 35 | 22 | 0.0 | 0.0 | 0.00 | 0.32 | 0.08 | 97 | 1013.4 |
| 20260502102850 | 35 | 22 | 0.0 | 0.0 | 0.00 | 0.33 | 0.08 | 97 | 1013.5 |
| 20260502102353 | 35 | 22 | 0.0 | 0.0 | 0.00 | 0.34 | 0.08 | 97 | 1013.6 |
| 20260502101812 | 35 | 22 | 0.0 | 0.0 | 0.00 | 0.34 | 0.08 | 97 | 1013.5 |
| 20260502101242 | 35 | 22 | 0.0 | 0.0 | 0.00 | 0.34 | 0.08 | 97 | 1013.4 |
| 20260502100704 | 35 | 22 | 0.0 | 0.0 | 0.00 | 0.34 | 0.08 | 97 | 1013.4 |
| 20260502100146 | 35 | 22 | 0.0 | 0.0 | 0.00 | 0.34 | 0.08 | 96 | 1013.3 |
| 20260502091106 | 35 | 22 | 0.0 | 0.0 | 0.01 | 0.34 | 0.08 | 96 | 1013.1 |
| 20260502090602 | 35 | 22 | 0.0 | 0.0 | 0.02 | 0.34 | 0.08 | 96 | 1013.1 |
| 20260502071407 | 37 | 22 | 0.0 | 0.0 | 0.00 | 0.31 | 0.05 | 96 | 1013.0 |
| 20260502070816 | 37 | 22 | 0.0 | 0.0 | 0.00 | 0.31 | 0.05 | 96 | 1013.1 |
| 20260502070246 | 37 | 22 | 0.0 | 0.0 | 0.00 | 0.31 | 0.05 | 96 | 1013.1 |
| 20260502065656 | 37 | 22 | 0.0 | 0.0 | 0.00 | 0.31 | 0.05 | 96 | 1013.1 |
| 20260502065128 | 37 | 22 | 0.0 | 0.0 | 0.01 | 0.31 | 0.05 | 96 | 1013.1 |
| 20260502064553 | 37 | 22 | 0.0 | 0.0 | 0.01 | 0.31 | 0.05 | 96 | 1013.1 |
| 20260502064058 | 37 | 22 | 0.0 | 0.0 | 0.01 | 0.31 | 0.05 | 96 | 1013.2 |
| 20260502063524 | 37 | 22 | 0.0 | 0.0 | 0.01 | 0.31 | 0.05 | 96 | 1013.2 |
| 20260502062940 | 37 | 22 | 0.0 | 0.0 | 0.01 | 0.31 | 0.05 | 96 | 1013.3 |
| 20260502062351 | 37 | 22 | 0.0 | 0.0 | 0.01 | 0.31 | 0.05 | 96 | 1013.4 |
| 20260502061850 | 37 | 22 | 0.0 | 0.0 | 0.01 | 0.31 | 0.05 | 96 | 1013.4 |
| 20260502061342 | 37 | 22 | 0.0 | 0.0 | 0.01 | 0.31 | 0.05 | 96 | 1013.4 |
| 20260502060758 | 37 | 22 | 0.0 | 0.0 | 0.01 | 0.31 | 0.05 | 96 | 1013.6 |
| 20260502060251 | 38 | 22 | 0.0 | 0.0 | 0.02 | 0.31 | 0.05 | 96 | 1013.6 |
| 20260502055754 | 38 | 22 | 0.0 | 0.0 | 0.02 | 0.31 | 0.05 | 96 | 1013.7 |
| 20260502055434 | 38 | 22 | 0.0 | 0.0 | 0.01 | 0.30 | 0.04 | 96 | 1013.8 |
| 20260502054640 | 38 | 22 | 0.0 | 0.0 | 0.01 | 0.30 | 0.04 | 96 | 1014.0 |
| 20260502054120 | 38 | 22 | 0.0 | 0.0 | 0.01 | 0.30 | 0.04 | 96 | 1014.1 |
| 20260502053623 | 38 | 22 | 0.0 | 0.0 | 0.01 | 0.30 | 0.04 | 96 | 1013.9 |
| 20260502053257 | 38 | 22 | 0.0 | 0.0 | 0.02 | 0.30 | 0.04 | 96 | 1013.9 |
| 20260502052512 | 38 | 22 | 0.0 | 0.0 | 0.02 | 0.30 | 0.04 | 95 | 1014.0 |
| 20260502051931 | 38 | 22 | 0.0 | 0.0 | 0.03 | 0.30 | 0.04 | 95 | 1013.9 |
| 20260502051352 | 38 | 22 | 0.0 | 0.0 | 0.03 | 0.30 | 0.04 | 95 | 1014.0 |
| 20260502051103 | 38 | 22 | 0.0 | 0.0 | 0.03 | 0.30 | 0.04 | 95 | 1014.1 |
| 20260502050535 | 38 | 22 | 0.0 | 0.0 | 0.03 | 0.29 | 0.03 | 95 | 1014.3 |
| 20260502045739 | 38 | 22 | 0.0 | 0.0 | 0.03 | 0.29 | 0.03 | 95 | 1014.3 |
| 20260502045219 | 38 | 22 | 0.0 | 0.0 | 0.03 | 0.29 | 0.03 | 95 | 1014.3 |
| 20260502044648 | 38 | 22 | 0.0 | 0.0 | 0.03 | 0.29 | 0.03 | 95 | 1014.1 |
| 20260502044401 | 38 | 22 | 0.0 | 0.0 | 0.03 | 0.29 | 0.03 | 95 | 1014.1 |
| 20260502043643 | 39 | 22 | 0.0 | 0.0 | 0.03 | 0.29 | 0.03 | 95 | 1014.3 |
| 20260502043128 | 39 | 22 | 0.0 | 0.0 | 0.02 | 0.28 | 0.02 | 96 | 1014.3 |
| 20260502042546 | 39 | 22 | 0.0 | 0.0 | 0.02 | 0.28 | 0.02 | 96 | 1014.1 |
| 20260502042001 | 39 | 22 | 0.0 | 0.0 | 0.01 | 0.27 | 0.01 | 96 | 1014.0 |
| 20260502041439 | 39 | 22 | 0.0 | 0.0 | 0.01 | 0.27 | 0.01 | 96 | 1014.0 |
| 20260502040301 | 40 | 22 | 0.0 | 0.0 | 0.00 | 0.26 | 0.00 | 96 | 1013.7 |
| 20260502035754 | 40 | 22 | 0.0 | 0.0 | 0.00 | 0.26 | 0.26 | 96 | 1013.7 |
| 20260502035253 | 40 | 22 | 0.0 | 0.0 | 0.00 | 0.26 | 0.26 | 95 | 1013.6 |
| 20260502034753 | 40 | 22 | 0.0 | 0.0 | 0.00 | 0.26 | 0.26 | 96 | 1013.8 |
| 20260502034255 | 40 | 22 | 0.0 | 0.0 | 0.00 | 0.26 | 0.26 | 96 | 1013.5 |
| 20260502034155 | 40 | 22 | 0.0 | 0.0 | 0.00 | 0.26 | 0.26 | 95 | 1013.5 |
| 20260502033129 | 40 | 22 | 0.0 | 0.0 | 0.00 | 0.26 | 0.26 | 95 | 1013.5 |
| 20260502032550 | 40 | 22 | 0.0 | 0.0 | 0.00 | 0.26 | 0.26 | 95 | 1013.5 |
| 20260502032021 | 40 | 22 | 0.0 | 0.0 | 0.00 | 0.26 | 0.26 | 95 | 1013.5 |
| 20260502031504 | 40 | 22 | 0.0 | 0.0 | 0.00 | 0.26 | 0.26 | 95 | 1013.4 |
| 20260502030951 | 40 | 22 | 0.0 | 0.0 | 0.00 | 0.26 | 0.26 | 95 | 1013.5 |
| 20260502030934 | 40 | 22 | 0.0 | 0.0 | 0.00 | 0.26 | 0.26 | 95 | 1013.5 |
| 20260502030136 | 39 | 22 | 0.0 | 0.0 | 0.00 | 0.26 | 0.26 | 95 | 1013.3 |
| 20260502025341 | 39 | 22 | 0.0 | 0.0 | 0.00 | 0.26 | 0.26 | 95 | 1013.3 |
| 20260502024810 | 39 | 22 | 0.0 | 0.0 | 0.00 | 0.26 | 0.26 | 95 | 1013.4 |
| 20260502024233 | 39 | 22 | 0.0 | 0.0 | 0.00 | 0.26 | 0.26 | 95 | 1013.4 |
| 20260502023717 | 39 | 22 | 0.0 | 0.0 | 0.00 | 0.26 | 0.26 | 95 | 1013.5 |
| 20260502023143 | 39 | 22 | 0.0 | 0.0 | 0.00 | 0.26 | 0.26 | 95 | 1013.4 |
| 20260502022634 | 39 | 22 | 0.0 | 0.0 | 0.00 | 0.26 | 0.26 | 95 | 1013.5 |
| 20260502022058 | 39 | 22 | 0.0 | 0.0 | 0.00 | 0.26 | 0.26 | 94 | 1013.5 |
| 20260502021553 | 39 | 22 | 0.0 | 0.0 | 0.00 | 0.26 | 0.26 | 94 | 1013.5 |
| 20260502021055 | 38 | 22 | 0.0 | 0.0 | 0.00 | 0.26 | 0.26 | 94 | 1013.5 |
| 20260502020816 | 38 | 22 | 0.0 | 0.0 | 0.00 | 0.26 | 0.26 | 94 | 1013.3 |
| 20260502020323 | 38 | 22 | 0.0 | 0.0 | 0.00 | 0.26 | 0.26 | 94 | 1013.2 |
| 20260502015545 | 38 | 22 | 0.0 | 0.0 | 0.00 | 0.26 | 0.26 | 93 | 1013.2 |
| 20260502015015 | 38 | 22 | 0.0 | 0.0 | 0.00 | 0.26 | 0.26 | 93 | 1013.1 |
| 20260502014441 | 38 | 22 | 0.0 | 0.0 | 0.00 | 0.26 | 0.26 | 93 | 1013.1 |
| 20260502013926 | 38 | 22 | 0.0 | 0.0 | 0.00 | 0.26 | 0.26 | 92 | 1013.1 |
| 20260502013409 | 38 | 22 | 0.0 | 0.0 | 0.00 | 0.26 | 0.26 | 92 | 1013.0 |
| 20260502012844 | 38 | 22 | 0.0 | 0.0 | 0.00 | 0.26 | 0.26 | 91 | 1013.0 |
| 20260502012309 | 38 | 22 | 0.0 | 0.0 | 0.00 | 0.26 | 0.26 | 91 | 1013.0 |
| 20260502011742 | 38 | 22 | 0.0 | 0.0 | 0.00 | 0.26 | 0.26 | 90 | 1012.9 |
| 20260502011206 | 39 | 22 | 0.0 | 0.0 | 0.00 | 0.26 | 0.26 | 90 | 1012.9 |
| 20260502010635 | 39 | 22 | 0.0 | 0.0 | 0.00 | 0.26 | 0.26 | 89 | 1012.8 |
| 20260502010334 | 39 | 22 | 0.0 | 0.0 | 0.00 | 0.26 | 0.26 | 89 | 1012.8 |
| 20260502005553 | 40 | 22 | 0.0 | 0.0 | 0.00 | 0.26 | 0.26 | 88 | 1012.7 |
| 20260502005042 | 40 | 22 | 0.0 | 0.0 | 0.00 | 0.26 | 0.26 | 88 | 1012.7 |
| 20260502004502 | 40 | 22 | 0.0 | 0.0 | 0.00 | 0.26 | 0.26 | 88 | 1012.5 |
| 20260502003926 | 40 | 22 | 0.0 | 0.0 | 0.00 | 0.26 | 0.26 | 87 | 1012.4 |
| 20260502003638 | 40 | 22 | 0.0 | 0.0 | 0.00 | 0.26 | 0.26 | 87 | 1012.3 |
| 20260502002844 | 41 | 22 | 0.0 | 0.0 | 0.00 | 0.26 | 0.26 | 87 | 1012.2 |
| 20260502002311 | 41 | 22 | 0.0 | 0.0 | 0.00 | 0.26 | 0.26 | 87 | 1012.1 |
| 20260502001727 | 41 | 22 | 0.0 | 0.0 | 0.00 | 0.26 | 0.26 | 86 | 1012.1 |
| 20260502001201 | 41 | 22 | 0.0 | 0.0 | 0.00 | 0.26 | 0.26 | 85 | 1012.1 |
| 20260502000551 | 41 | 22 | 0.0 | 0.0 | 0.00 | 0.26 | 0.26 | 85 | 1012.2 |
| 20260502000053 | 41 | 22 | 0.0 | 0.0 | 0.00 | 0.26 | 0.26 | 85 | 1012.1 |
| 20260501235557 | 41 | 22 | 0.0 | 0.0 | 0.00 | 0.26 | 0.26 | 85 | 1012.1 |
| 20260501234946 | 42 | 22 | 0.0 | 0.0 | 0.00 | 0.26 | 0.26 | 83 | 1012.2 |
| 20260501233947 | 42 | 22 | 0.0 | 0.0 | 0.00 | 0.26 | 0.26 | 83 | 1012.1 |
| 20260501233405 | 42 | 22 | 0.0 | 0.0 | 0.00 | 0.26 | 0.26 | 82 | 1012.0 |
| 20260501233323 | 42 | 22 | 0.0 | 3.0 | 0.00 | 0.26 | 0.26 | 81 | 1011.9 |
| 20260501232301 | 42 | 22 | 0.0 | 3.0 | 0.00 | 0.26 | 0.26 | 81 | 1012.0 |
| 20260501231739 | 43 | 22 | 0.0 | 0.0 | 0.00 | 0.26 | 0.26 | 81 | 1012.1 |
| 20260501231426 | 43 | 22 | 0.0 | 4.0 | 0.00 | 0.26 | 0.26 | 81 | 1011.9 |
| 20260501230612 | 43 | 24 | 0.0 | 0.0 | 0.00 | 0.26 | 0.26 | 80 | 1011.6 |
| 20260501230055 | 43 | 24 | 0.0 | 0.0 | 0.00 | 0.26 | 0.26 | 81 | 1011.6 |
| 20260501225755 | 43 | 24 | 0.0 | 0.0 | 0.00 | 0.26 | 0.26 | 82 | 1011.6 |
| 20260501225039 | 43 | 24 | 0.0 | 0.0 | 0.00 | 0.26 | 0.26 | 83 | 1011.6 |
| 20260501224721 | 42 | 24 | 0.0 | 0.0 | 0.00 | 0.26 | 0.26 | 82 | 1011.5 |
| 20260501223930 | 43 | 24 | 0.0 | 0.0 | 0.00 | 0.26 | 0.26 | 82 | 1011.7 |
| 20260501223345 | 43 | 24 | 0.0 | 0.0 | 0.00 | 0.26 | 0.26 | 82 | 1011.6 |
| 20260501222759 | 43 | 24 | 0.0 | 0.0 | 0.00 | 0.26 | 0.26 | 84 | 1011.6 |
| 20260501222235 | 42 | 24 | 0.0 | 0.0 | 0.00 | 0.26 | 0.26 | 84 | 1011.6 |
| 20260501221649 | 42 | 24 | 0.0 | 0.0 | 0.00 | 0.26 | 0.26 | 87 | 1011.5 |
| 20260501221111 | 42 | 24 | 0.0 | 0.0 | 0.00 | 0.26 | 0.26 | 88 | 1011.5 |
| 20260501220518 | 42 | 24 | 0.0 | 0.0 | 0.00 | 0.26 | 0.26 | 88 | 1011.5 |
| 20260501220019 | 42 | 24 | 0.0 | 0.0 | 0.00 | 0.26 | 0.26 | 90 | 1011.5 |
| 20260501215427 | 42 | 24 | 0.0 | 0.0 | 0.00 | 0.26 | 0.26 | 90 | 1011.4 |
| 20260501215122 | 42 | 24 | 0.0 | 0.0 | 0.00 | 0.26 | 0.26 | 91 | 1011.4 |
| 20260501214536 | 42 | 24 | 0.0 | 0.0 | 0.00 | 0.26 | 0.26 | 92 | 1011.4 |
| 20260501213945 | 41 | 24 | 0.0 | 0.0 | 0.00 | 0.26 | 0.26 | 92 | 1011.4 |
| 20260501213152 | 41 | 24 | 0.0 | 0.0 | 0.00 | 0.26 | 0.26 | 93 | 1011.4 |
| 20260501212629 | 41 | 24 | 0.0 | 0.0 | 0.00 | 0.26 | 0.26 | 93 | 1011.3 |
| 20260501212122 | 41 | 24 | 0.0 | 0.0 | 0.00 | 0.26 | 0.26 | 94 | 1011.0 |
| 20260501211755 | 40 | 24 | 0.0 | 0.0 | 0.00 | 0.26 | 0.26 | 94 | 1011.0 |
| 20260501211223 | 40 | 24 | 0.0 | 0.0 | 0.01 | 0.26 | 0.26 | 95 | 1011.0 |
| 20260501210502 | 40 | 24 | 0.0 | 0.0 | 0.01 | 0.26 | 0.26 | 95 | 1011.0 |
| 20260501210137 | 40 | 24 | 0.0 | 0.0 | 0.01 | 0.26 | 0.26 | 95 | 1010.8 |
| 20260501205324 | 40 | 24 | 0.0 | 3.0 | 0.01 | 0.26 | 0.26 | 96 | 1010.7 |
| 20260501204729 | 39 | 24 | 0.0 | 3.0 | 0.01 | 0.26 | 0.26 | 96 | 1010.6 |
| 20260501204203 | 39 | 23 | 1.0 | 7.0 | 0.01 | 0.26 | 0.26 | 96 | 1010.6 |
| 20260501203921 | 39 | 24 | 1.0 | 7.0 | 0.01 | 0.26 | 0.26 | 96 | 1010.7 |
| 20260501203202 | 39 | 19 | 3.0 | 5.0 | 0.01 | 0.26 | 0.26 | 96 | 1010.7 |
| 20260501203146 | 39 | 9 | 3.0 | 5.0 | 0.01 | 0.26 | 0.26 | 97 | 1011.0 |
| 20260501202149 | 39 | 338 | 2.0 | 5.0 | 0.01 | 0.26 | 0.26 | 97 | 1010.8 |
| 20260501201633 | 39 | 31 | 3.0 | 5.0 | 0.02 | 0.26 | 0.26 | 97 | 1010.8 |
| 20260501201102 | 39 | 31 | 1.0 | 5.0 | 0.01 | 0.25 | 0.25 | 97 | 1010.7 |
| 20260501200602 | 39 | 32 | 0.0 | 5.0 | 0.01 | 0.25 | 0.25 | 97 | 1010.7 |
| 20260501200043 | 39 | 32 | 0.0 | 5.0 | 0.01 | 0.25 | 0.25 | 97 | 1010.8 |
| 20260501195538 | 39 | 33 | 0.0 | 0.0 | 0.01 | 0.25 | 0.25 | 97 | 1010.8 |
| 20260501195018 | 38 | 33 | 1.0 | 9.0 | 0.01 | 0.25 | 0.25 | 97 | 1010.7 |
| 20260501194455 | 38 | 33 | 1.0 | 9.0 | 0.01 | 0.25 | 0.25 | 97 | 1010.7 |
| 20260501193953 | 38 | 336 | 1.0 | 7.0 | 0.01 | 0.25 | 0.25 | 97 | 1010.7 |
| 20260501193359 | 38 | 336 | 1.0 | 7.0 | 0.02 | 0.25 | 0.25 | 97 | 1010.6 |
| 20260501192853 | 38 | 9 | 2.0 | 7.0 | 0.02 | 0.25 | 0.25 | 97 | 1010.6 |
| 20260501192613 | 38 | 9 | 1.0 | 7.0 | 0.02 | 0.25 | 0.25 | 97 | 1010.5 |
| 20260501191822 | 38 | 12 | 1.0 | 6.0 | 0.02 | 0.25 | 0.25 | 97 | 1010.7 |
| 20260501191323 | 38 | 12 | 1.0 | 6.0 | 0.01 | 0.24 | 0.24 | 97 | 1010.6 |
| 20260501191232 | 38 | 347 | 2.0 | 5.0 | 0.01 | 0.24 | 0.24 | 97 | 1010.5 |
| 20260501190526 | 38 | 17 | 1.0 | 6.0 | 0.01 | 0.24 | 0.24 | 97 | 1010.5 |
| 20260501185736 | 38 | 16 | 1.0 | 6.0 | 0.02 | 0.24 | 0.24 | 97 | 1010.5 |
| 20260501185229 | 38 | 21 | 2.0 | 7.0 | 0.02 | 0.24 | 0.24 | 96 | 1010.4 |
| 20260501184709 | 39 | 35 | 2.0 | 7.0 | 0.02 | 0.24 | 0.24 | 96 | 1010.4 |
| 20260501184425 | 39 | 0 | 3.0 | 6.0 | 0.02 | 0.24 | 0.24 | 97 | 1010.3 |
| 20260501183656 | 39 | 355 | 2.0 | 7.0 | 0.02 | 0.24 | 0.24 | 97 | 1010.2 |
| 20260501183153 | 39 | 11 | 1.0 | 7.0 | 0.01 | 0.23 | 0.23 | 97 | 1010.2 |
| 20260501182913 | 39 | 23 | 2.0 | 7.0 | 0.01 | 0.23 | 0.23 | 97 | 1010.2 |
| 20260501182152 | 39 | 23 | 2.0 | 7.0 | 0.02 | 0.23 | 0.23 | 97 | 1010.1 |
| 20260501181609 | 39 | 5 | 3.0 | 7.0 | 0.02 | 0.23 | 0.23 | 96 | 1010.1 |
| 20260501181027 | 39 | 34 | 1.0 | 6.0 | 0.02 | 0.23 | 0.23 | 96 | 1010.1 |
| 20260501180456 | 39 | 21 | 2.0 | 9.0 | 0.02 | 0.23 | 0.23 | 97 | 1010.3 |
| 20260501175922 | 40 | 21 | 2.0 | 9.0 | 0.01 | 0.22 | 0.22 | 97 | 1010.2 |
| 20260501175400 | 40 | 12 | 1.0 | 7.0 | 0.01 | 0.22 | 0.22 | 97 | 1009.9 |
| 20260501174831 | 40 | 344 | 2.0 | 7.0 | 0.01 | 0.22 | 0.22 | 97 | 1009.8 |
| 20260501174333 | 40 | 5 | 2.0 | 6.0 | 0.02 | 0.22 | 0.22 | 97 | 1009.9 |
| 20260501173814 | 40 | 32 | 2.0 | 6.0 | 0.03 | 0.22 | 0.22 | 97 | 1009.8 |
| 20260501173537 | 40 | 24 | 2.0 | 6.0 | 0.03 | 0.22 | 0.22 | 97 | 1009.8 |
| 20260501172945 | 40 | 23 | 2.0 | 6.0 | 0.04 | 0.22 | 0.22 | 97 | 1009.9 |
| 20260501172206 | 40 | 23 | 2.0 | 5.0 | 0.04 | 0.21 | 0.21 | 97 | 1009.8 |
| 20260501171920 | 40 | 23 | 1.0 | 5.0 | 0.04 | 0.21 | 0.21 | 97 | 1009.9 |
| 20260501171152 | 40 | 38 | 1.0 | 5.0 | 0.05 | 0.21 | 0.21 | 97 | 1009.9 |
| 20260501170636 | 40 | 22 | 1.0 | 5.0 | 0.05 | 0.21 | 0.21 | 97 | 1009.9 |
| 20260501170138 | 40 | 22 | 0.0 | 5.0 | 0.06 | 0.21 | 0.21 | 97 | 1009.9 |
| 20260501165844 | 40 | 22 | 0.0 | 5.0 | 0.07 | 0.21 | 0.21 | 97 | 1009.9 |
| 20260501165028 | 40 | 22 | 2.0 | 5.0 | 0.07 | 0.21 | 0.21 | 97 | 1009.8 |
| 20260501164508 | 40 | 22 | 2.0 | 5.0 | 0.07 | 0.20 | 0.20 | 97 | 1009.7 |
| 20260501163959 | 40 | 13 | 0.0 | 5.0 | 0.07 | 0.19 | 0.19 | 97 | 1010.0 |
| 20260501163428 | 41 | 5 | 0.0 | 0.0 | 0.07 | 0.19 | 0.19 | 97 | 1009.9 |
| 20260501163130 | 41 | 5 | 0.0 | 0.0 | 0.06 | 0.18 | 0.18 | 97 | 1010.1 |
| 20260501162323 | 40 | 5 | 0.0 | 1.0 | 0.06 | 0.17 | 0.18 | 97 | 1010.1 |
| 20260501161758 | 40 | 5 | 1.0 | 3.0 | 0.06 | 0.17 | 0.17 | 97 | 1010.1 |
| 20260501161225 | 40 | 5 | 1.0 | 3.0 | 0.06 | 0.16 | 0.16 | 97 | 1010.0 |
| 20260501160718 | 40 | 5 | 1.0 | 5.0 | 0.06 | 0.16 | 0.16 | 97 | 1010.1 |
| 20260501160217 | 40 | 5 | 1.0 | 5.0 | 0.06 | 0.15 | 0.15 | 96 | 1010.1 |
| 20260501155656 | 41 | 330 | 0.0 | 0.0 | 0.06 | 0.15 | 0.15 | 97 | 1010.0 |
| 20260501155201 | 41 | 330 | 0.0 | 4.0 | 0.05 | 0.14 | 0.14 | 97 | 1010.0 |
| 20260501154640 | 41 | 330 | 0.0 | 4.0 | 0.04 | 0.13 | 0.13 | 97 | 1010.1 |
| 20260501154143 | 41 | 310 | 0.0 | 0.0 | 0.05 | 0.13 | 0.13 | 97 | 1010.1 |
| 20260501153559 | 41 | 310 | 0.0 | 0.0 | 0.04 | 0.12 | 0.12 | 97 | 1010.1 |
| 20260501153052 | 41 | 300 | 0.0 | 0.0 | 0.04 | 0.12 | 0.12 | 97 | 1010.1 |
| 20260501152556 | 41 | 298 | 0.0 | 0.0 | 0.03 | 0.11 | 0.11 | 96 | 1010.1 |
| 20260501152241 | 41 | 298 | 0.0 | 2.0 | 0.03 | 0.11 | 0.11 | 96 | 1010.1 |
| 20260501151438 | 41 | 298 | 0.0 | 2.0 | 0.03 | 0.11 | 0.11 | 96 | 1010.1 |
| 20260501150926 | 41 | 247 | 0.0 | 0.0 | 0.02 | 0.10 | 0.10 | 96 | 1010.1 |
| 20260501150426 | 41 | 247 | 0.0 | 0.0 | 0.01 | 0.09 | 0.09 | 97 | 1010.1 |
| 20260501145856 | 41 | 247 | 0.0 | 0.0 | 0.01 | 0.09 | 0.09 | 97 | 1010.1 |
| 20260501145316 | 41 | 247 | 0.0 | 0.0 | 0.01 | 0.09 | 0.09 | 97 | 1010.0 |